CAPE
544 311 1242 2072 732 33 0 0 0 0 0 5 13 0 3 6 87 753 741 354 0 0 1022 1900 2592 2320 2063 1951 1930 1596 1397 1225 931 425 183 73 565 101 29 239 459 279 35 6 9 11 14 10 10
352 287 1357 1124 337 4 54 2 0 0 0 0 6 34 59 16 480 997 738 492 0 124 1064 1524 2652 2556 2233 1826 1707 1448 1297 1139 826 398 125 0 279 256 123 292 415 208 47 8 4 6 12 17 26
162 395 987 581 279 55 2 93 26 4 0 1 76 152 305 819 1094 1084 1051 580 0 586 1127 1759 2618 2520 2148 1948 1729 1460 1229 1089 602 257 62 1 0 529 289 275 430 240 23 7 3 1 3 5 11
2 239 537 306 208 142 157 220 17 3 4 9 91 170 557 888 1155 1318 1074 586 0 687 818 2196 2603 2321 2224 1988 1547 1506 1207 1013 414 117 3 0 0 467 347 255 357 190 10 3 1 0 0 0 0
0 0 0 0 57 46 120 266 237 238 108 114 176 230 551 1345 1415 1326 918 142 294 1082 1184 1804 2275 1961 2090 1488 1511 1368 1127 614 250 35 0 0 14 542 334 114 453 195 10 6 1 0 0 0 0
0 0 0 0 0 3 54 341 254 342 336 288 330 376 951 1509 1484 1250 599 339 1061 1038 1399 1553 2094 2181 1942 1763 1536 1363 856 446 88 17 0 29 646 465 289 324 274 151 7 2 0 0 0 0 0
0 0 0 0 0 0 8 226 151 274 275 432 634 570 1164 1465 1463 1237 576 553 796 590 524 1110 1250 1394 2001 1790 1585 1524 697 289 63 6 58 550 609 453 332 323 251 108 1 0 0 0 0 0 0
3 0 18 49 0 1 11 21 379 557 538 365 598 663 698 1611 1369 1251 967 610 590 484 479 804 1080 1162 1113 1114 1287 1218 897 202 381 368 600 842 523 444 318 294 194 31 1 0 0 0 0 0 0
0 5 0 0 11 36 23 122 191 198 311 246 225 617 467 738 1572 1217 1105 700 476 536 949 1140 1005 805 751 734 895 891 830 594 686 674 661 373 190 75 68 110 163 12 0 0 0 0 0 0 0
0 2 1 0 2 0 0 12 100 166 72 57 51 253 522 1521 1846 1390 1126 839 400 583 696 1155 1091 814 529 503 659 155 33 3 88 165 73 176 18 26 34 14 133 0 0 0 0 0 0 0 0
0 0 0 0 0 0 0 0 0 0 0 0 26 187 552 851 1532 1658 1359 1107 687 1018 1013 1153 1338 1076 618 200 151 1 0 17 689 174 34 17 20 1 2 0 25 1 0 0 0 0 0 0 0
0 0 0 0 0 0 0 0 0 0 0 0 0 0 0 215 1067 1463 1618 1339 826 989 971 1331 976 1083 291 63 4 0 1 541 1118 226 24 8 8 0 4 0 12 1 0 0 0 0 0 0 0
0 0 0 0 0 0 0 0 0 0 0 0 0 0 0 0 535 936 1377 1439 1098 982 1222 1285 927 457 150 9 1 5 714 1081 465 156 12 7 0 0 0 0 1 0 0 0 0 0 0 0 0
0 0 0 0 0 0 0 0 0 0 0 0 0 0 0 0 6 259 974 1524 1253 975 976 1062 716 697 101 2 0 314 759 788 370 207 21 0 0 0 0 0 0 0 0 0 0 0 0 0 0
0 0 0 0 0 0 0 0 0 0 0 0 0 0 0 0 0 0 278 1122 1421 1272 1052 965 878 454 142 2 38 932 715 466 608 213 2 0 0 0 0 0 0 0 0 0 0 0 0 0 0
0 0 5 1 0 0 0 0 0 1 0 0 0 0 0 0 0 0 0 454 995 1294 1082 889 1050 376 213 8 762 839 641 374 373 88 0 0 0 0 0 0 0 0 0 0 0 0 0 0 0
10 1 0 1 0 0 0 1 5 11 13 8 7 1 0 0 0 0 69 241 816 1510 1095 832 959 467 284 24 799 897 534 315 300 15 0 0 0 0 0 0 0 0 0 0 0 0 0 0 0
0 0 0 1 0 0 0 4 6 3 0 1 2 3 0 0 0 0 43 692 1012 1616 711 665 728 584 462 210 678 544 784 413 292 0 0 0 0 0 0 0 0 0 0 0 0 0 0 0 0
0 0 0 0 0 0 1 1 0 11 13 15 7 22 1 3 0 0 0 705 1389 1273 582 79 438 729 413 553 1136 737 470 457 118 0 0 0 0 0 0 0 0 0 0 0 0 0 0 0 0
0 0 0 0 0 0 0 3 8 18 23 27 22 17 33 2 0 0 0 1 626 1303 731 687 801 869 575 964 625 208 159 266 39 9 0 0 0 0 0 0 0 0 0 0 0 0 0 0 0
0 0 0 0 0 0 0 2 8 2 14 15 10 16 12 31 4 0 0 1 268 1174 1139 839 374 1099 722 830 258 2 0 0 0 0 1 0 0 0 0 0 0 0 0 0 0 0 0 0 0
0 0 0 0 0 4 1 13 8 0 3 9 10 23 33 32 55 36 2 36 117 651 1287 1221 878 879 800 449 7 2 0 1 3 0 0 0 0 0 0 0 0 0 0 0 0 0 0 0 0
0 0 0 0 0 2 3 9 2 0 0 2 0 10 5 1 149 464 64 37 14 349 707 1296 667 137 325 99 18 70 1 0 2 0 0 0 0 0 0 0 0 0 0 0 0 0 0 0 0
0 0 0 0 0 11 1 10 18 0 0 1 48 13 8 5 6 625 440 143 99 524 1053 895 346 178 17 1 21 1 1 1 1 4 4 6 6 3 0 0 0 0 0 0 0 0 0 0 0
0 0 19 16 17 9 0 16 21 7 0 40 45 11 7 7 5 289 733 523 433 1288 1284 757 274 82 131 18 1 1 1 1 1 2 2 2 5 7 5 1 0 0 0 0 0 0 0 0 0
0 0 0 2 0 0 6 3 13 3 6 14 1 6 5 9 5 25 1276 1361 1156 1212 736 105 56 2 2 1 1 1 1 2 2 4 7 11 8 6 3 4 1 0 0 0 0 0 0 0 0
0 0 0 1 1 22 24 0 38 37 13 0 0 2 5 7 7 6 2 635 589 441 200 31 3 3 2 3 6 9 5 4 4 2 2 16 3 5 5 2 1 0 0 0 0 0 0 0 0
0 0 0 10 22 7 7 0 0 0 0 0 0 0 1 7 8 6 5 2 2 17 103 22 8 6 11 21 30 27 28 5 5 7 7 5 2 0 0 0 0 0 0 0 0 0 0 0 0
0 0 0 0 0 3 3 0 0 0 0 0 0 0 0 3 3 4 2 4 3 1 2 4 0 3 0 0 0 0 0 0 0 0 0 1 0 2 1 0 0 0 0 0 0 0 0 0 0
0 0 0 0 0 0 0 0 0 0 0 0 0 0 0 0 4 1 0 0 0 1 0 0 0 0 0 0 0 0 0 0 0 0 0 0 0 0 0 0 0 0 0 0 0 0 0 0 0
CIN
-114 -79 -1 0 0 -44 -8 0 0 0 0 0 -107 0 0 -2 -5 -14 -207 -180 0 0 -84 0 0 0 0 0 0 0 0 0 0 0 -29 -91 0 -98 -179 -55 -7 -46 -195 0 0 0 0 0 -28
-103 -64 0 0 0 -4 -42 0 0 0 0 0 -78 -31 -11 -1 -31 -147 -174 -182 0 -68 -67 -6 0 0 0 0 0 0 0 0 0 0 -67 0 -19 -35 -93 -35 -13 -67 -174 0 0 0 0 0 -194
-205 -36 0 0 -2 -67 -15 0 -6 -2 0 -55 0 -16 -1 -5 -56 -82 -136 -157 0 -79 -39 -4 0 0 0 0 0 0 0 0 0 -10 -119 0 -26 0 -29 -27 -15 -58 -197 0 0 0 0 0 0
-253 -27 0 0 -13 -12 -1 -1 -1 -4 -1 -17 0 -1 -14 -58 -51 -59 -143 -145 0 -54 -30 -20 0 0 0 0 0 0 0 0 -2 -66 -17 0 0 -11 -34 -51 -27 -79 -5 0 0 0 0 0 0
0 0 0 0 -74 -47 -1 -1 -2 -1 0 -2 -2 -1 -1 -63 -79 -100 -141 -168 -122 -47 -22 0 0 0 0 -1 0 0 0 0 -9 -141 0 0 -102 -9 -33 -107 -24 -100 0 0 0 0 0 0 0
0 0 0 0 0 0 0 -1 -1 0 -1 -1 0 -1 -14 -75 -63 -83 -131 -118 -22 -17 -2 0 0 0 0 0 0 0 0 0 -79 -202 0 -162 -6 -14 -48 -36 -47 -109 0 0 0 0 0 0 0
0 0 0 0 0 0 0 -2 0 0 -1 -7 -2 -1 -17 -62 -60 -61 -102 -83 -50 -45 -43 -13 0 0 0 0 0 0 0 -5 -104 -175 -104 -6 -1 -8 -36 -41 -46 -123 0 0 0 0 0 0 0
-129 0 -99 -61 -3 -3 -14 -15 0 -1 0 -24 -8 -1 -5 -10 -67 -35 -45 -62 -55 -60 -61 -33 0 0 0 0 0 0 -4 -8 -1 -4 0 0 -4 -4 -24 -50 -79 0 0 0 0 0 0 0 0
0 -113 0 0 -102 -64 -61 -16 -8 -6 -7 -1 -2 -3 -11 -74 -51 -43 -20 -43 -50 -31 -7 -7 -5 -1 -1 -1 0 0 -2 0 0 0 -1 -28 -40 -121 -124 -104 -100 0 0 0 0 0 0 0 0
0 -152 -69 0 -74 0 0 -83 -41 -14 -45 -25 -16 -1 -21 -10 -7 -34 -22 -40 -46 -13 -3 -2 -1 -3 -1 -1 -1 -22 -18 0 -13 -11 -52 -21 -1 0 -2 -2 -93 0 0 0 0 0 0 0 0
0 0 0 0 0 0 -15 0 0 0 0 0 -1 -1 -5 -5 -2 0 -11 -1 -10 -20 -6 -9 -1 -8 -5 -21 -36 0 0 0 -1 -3 -2 -1 -1 -2 -1 0 0 0 0 0 0 0 0 0 0
0 0 0 0 0 0 0 0 0 0 0 0 0 0 0 -5 0 0 0 0 -15 -77 -42 -11 -3 -1 -23 -58 0 0 0 -1 -2 -12 -1 -4 0 0 0 0 0 0 0 0 0 0 0 0 0
0 0 0 0 0 0 0 0 0 0 0 0 0 0 0 0 0 -1 0 -2 0 -4 -3 0 -7 -1 -34 0 0 0 -6 -1 -33 -24 -2 0 -1 0 0 0 -1 0 0 0 0 0 0 0 0
0 0 0 0 0 0 0 0 0 0 0 0 0 0 0 0 -8 -14 -1 0 -3 -11 -7 -1 -2 -2 -32 0 0 -3 -1 -5 -14 -17 -27 0 0 0 0 0 0 0 0 0 0 0 0 0 0
0 0 0 0 0 0 0 0 0 0 0 0 0 0 0 0 0 0 -11 0 0 -2 -3 -2 0 -9 -31 -1 -78 -3 0 0 -3 -2 -4 0 0 0 0 0 0 0 0 0 0 0 0 0 0
0 0 -35 -39 0 0 0 0 -1 -2 0 0 0 0 0 0 0 0 0 -4 -1 0 0 -10 -1 -69 -18 -95 -6 -12 0 -13 -2 -7 0 0 0 0 0 0 0 0 0 0 0 0 0 0 0
-5 0 0 0 0 0 0 0 0 0 0 0 0 0 0 0 0 0 -38 -10 -2 -1 -4 -6 0 -1 -14 -72 -5 -13 -1 -13 -9 -4 0 0 0 0 0 0 0 0 0 0 0 0 0 0 0
0 0 0 0 0 0 0 0 0 -1 0 0 0 0 0 0 0 0 -61 -1 -1 -2 -20 -9 -13 -7 -2 -11 -5 -20 -2 -10 -6 0 0 0 0 0 0 0 0 0 0 0 0 0 0 0 0
0 0 0 0 0 0 0 0 0 0 -1 -1 0 0 -1 0 0 0 0 -7 -1 -10 -49 -82 -21 -7 -42 -23 0 0 -2 -6 -11 0 0 0 0 0 0 0 0 0 0 0 0 0 0 0 0
0 0 0 0 0 0 0 0 0 0 -1 0 0 0 0 0 0 0 0 -259 -15 -1 -29 0 -1 -3 -9 -16 -8 -19 -32 -8 -28 -1 0 0 0 0 0 0 0 0 0 0 0 0 0 0 0
0 0 0 0 0 0 0 -1 0 -4 -2 -2 -4 -7 -1 0 0 0 -93 -277 -48 -5 -46 -6 0 -1 -21 -11 -29 -28 0 0 0 -1 -1 0 0 0 0 0 0 0 0 0 0 0 0 0 0
0 0 0 0 0 0 0 -1 -2 -2 -2 0 0 0 0 -37 -4 -29 -152 -202 -107 -29 -3 -1 -9 -7 -2 -4 -75 0 0 0 0 0 0 0 0 0 0 0 0 0 0 0 0 0 0 0 0
0 0 0 0 0 0 0 -1 -2 0 0 0 -1 -2 -1 0 -19 0 -73 -154 -246 -55 -7 0 -12 -8 -20 -72 -137 -19 -11 0 0 0 0 0 0 0 0 0 0 0 0 0 0 0 0 0 0
0 0 0 0 0 -3 0 -1 -1 -2 -1 -1 0 -46 0 0 -14 -16 0 -64 -150 -38 -7 -1 -14 -46 -79 -2 -29 0 0 0 0 0 0 0 0 0 0 0 0 0 0 0 0 0 0 0 0
0 0 -1 0 0 0 0 0 0 -12 0 0 0 0 0 0 0 -76 -1 -25 -51 -2 -2 -14 -67 -153 -45 -23 0 0 0 0 0 0 0 0 0 0 0 0 0 0 0 0 0 0 0 0 0
0 0 0 0 0 0 0 -4 0 -12 -7 -6 -17 0 0 0 0 -77 -2 -7 -8 -8 -23 -151 -174 0 0 0 0 0 0 0 0 0 0 0 0 0 0 0 0 0 0 0 0 0 0 0 0
0 0 0 0 0 -1 -6 0 -3 -1 -1 0 0 0 0 0 0 0 0 -43 -43 -75 -107 -126 0 0 0 0 0 0 0 0 0 0 0 0 0 0 0 0 0 0 0 0 0 0 0 0 0
0 0 0 -1 0 -1 -1 0 0 0 0 0 0 0 0 0 0 0 0 0 0 -165 -165 -159 0 0 0 0 0 0 0 -1 0 0 0 0 0 0 0 0 0 0 0 0 0 0 0 0 0
0 0 0 0 0 0 0 0 0 0 0 0 0 0 0 0 0 0 0 0 0 0 0 0 0 0 0 0 0 0 0 0 0 0 0 0 0 0 0 0 0 0 0 0 0 0 0 0 0
0 0 0 0 0 0 0 0 0 0 0 0 0 0 0 0 0 0 0 0 0 0 0 0 0 0 0 0 0 0 0 0 0 0 0 0 0 0 0 0 0 0 0 0 0 0 0 0 0
Wind_Speed
10 10 6 4 8 7 14 11 8 4 9 7 5 8 7 11 9 4 4 4 17 18 19 17 18 18 18 17 17 15 15 14 15 14 13 12 12 12 11 12 14 17 16 16 16 16 16 16 16
7 6 5 7 9 13 11 13 8 8 3 5 2 6 9 6 8 7 10 7 16 17 17 18 17 17 17 17 16 16 16 14 15 13 12 11 11 12 11 12 13 17 16 16 16 16 16 16 16
10 9 8 6 14 15 14 3 4 1 5 6 4 2 7 6 7 7 8 13 17 16 17 19 17 16 16 16 16 16 15 15 14 13 11 10 10 10 12 14 14 16 15 16 16 16 16 15 15
6 5 8 13 19 15 15 14 5 6 7 7 3 9 6 5 2 3 11 17 17 14 13 22 16 16 16 16 17 16 15 14 14 12 10 10 9 8 13 14 15 17 16 15 15 15 15 15 15
6 7 11 15 20 21 19 9 8 10 10 9 9 9 2 8 3 6 14 17 18 18 16 17 16 17 17 16 16 16 16 15 12 11 10 9 9 8 13 13 16 16 15 15 15 15 15 15 14
6 6 13 15 20 19 17 9 13 13 15 14 5 16 5 8 6 9 14 16 14 16 18 18 16 16 16 17 17 17 16 15 12 11 11 10 8 13 14 12 15 16 15 14 14 15 15 14 15
11 9 14 18 18 18 12 8 11 16 14 7 7 10 7 9 5 11 14 14 13 13 13 17 16 14 13 15 17 17 16 14 12 11 11 11 13 14 14 14 13 16 14 13 13 14 14 15 14
7 9 17 15 14 15 12 11 6 7 11 7 4 5 3 17 11 11 12 13 13 14 14 12 14 16 14 13 14 15 15 13 12 11 10 14 13 14 12 14 13 15 14 13 13 13 14 14 12
5 7 11 13 13 11 9 7 12 2 11 8 4 8 6 10 9 9 11 12 13 13 18 16 13 14 12 13 12 13 14 12 11 9 13 14 9 8 11 14 12 14 13 12 13 14 14 14 8
7 8 12 10 10 11 12 13 12 12 10 15 12 7 2 8 8 10 9 10 13 13 13 15 12 12 12 11 16 12 11 11 11 12 13 10 9 8 12 12 13 14 13 12 13 12 13 12 7
3 11 9 9 11 12 14 15 14 15 16 16 16 10 10 7 9 12 12 11 13 9 7 12 13 12 17 10 10 7 8 8 7 11 10 9 7 7 7 7 8 8 10 7 8 6 5 7 5
8 7 7 10 9 10 13 14 16 16 15 15 15 16 13 11 12 12 15 15 17 9 5 12 12 17 10 7 8 9 8 8 6 7 9 6 6 8 9 7 8 7 5 7 5 4 6 7 8
9 8 10 11 12 13 14 16 16 16 15 14 14 16 18 14 14 14 14 13 13 14 18 17 15 9 10 11 9 9 7 7 6 7 7 7 6 7 7 7 6 5 5 6 6 6 5 6 7
9 12 13 11 9 11 12 14 14 12 4 9 12 15 15 14 15 14 14 14 14 9 12 14 13 12 12 11 11 8 8 7 4 4 6 8 7 7 6 7 6 6 6 6 6 6 6 5 6
10 10 11 1 5 10 8 14 16 12 6 10 11 11 12 11 14 17 16 16 16 17 15 14 16 17 13 12 11 6 7 7 7 6 9 8 8 8 8 7 7 7 7 9 7 7 6 6 5
8 7 8 9 4 3 5 12 10 4 10 10 14 13 11 10 13 16 16 17 18 16 19 17 12 17 13 13 10 8 8 5 4 7 7 10 9 9 8 7 7 7 6 6 6 5 5 5 5
7 13 12 8 1 5 7 14 13 13 14 14 15 14 15 11 10 12 13 14 16 15 15 19 18 13 13 14 11 8 13 4 5 7 7 9 9 10 8 7 7 8 6 6 5 5 5 5 5
15 15 12 11 9 11 11 13 11 11 11 12 12 13 15 14 12 7 9 12 14 15 10 14 13 15 11 6 8 6 6 7 6 7 7 11 9 10 8 6 7 8 6 5 5 7 5 5 5
13 15 14 11 7 10 11 8 5 6 5 8 13 12 13 13 6 3 9 12 10 10 10 9 9 10 6 10 9 6 6 7 7 7 11 10 10 11 8 6 8 7 6 7 7 5 5 4 4
15 13 13 7 3 8 12 4 3 10 12 15 11 11 11 11 12 13 9 10 11 13 16 25 17 18 15 12 9 5 3 3 5 4 6 6 8 10 9 6 5 5 5 7 6 6 4 3 3
15 10 15 15 13 7 16 8 8 18 13 15 18 19 15 13 11 13 6 10 9 13 13 15 16 18 14 15 10 8 6 4 4 6 6 5 8 8 9 9 5 5 4 4 4 4 4 2 2
12 17 13 9 8 7 10 3 7 16 15 18 16 16 17 13 15 11 10 9 11 12 12 12 12 13 14 14 10 13 6 5 1 2 4 1 5 8 11 11 8 8 6 5 4 3 1 3 2
11 13 8 6 9 7 12 5 5 19 16 22 19 15 14 12 14 15 10 9 10 8 7 11 7 3 9 13 12 7 8 6 6 4 6 3 5 9 8 11 10 7 5 3 6 4 2 2 3
14 14 5 7 8 2 13 5 5 12 12 18 16 16 14 15 14 15 7 5 5 5 7 9 11 6 10 14 12 10 9 8 6 5 5 4 3 4 4 8 10 7 4 6 3 3 4 4 6
15 14 3 3 4 7 13 3 8 12 11 11 12 14 14 14 14 14 4 7 6 10 12 8 10 12 8 13 13 11 8 6 4 6 4 7 5 4 5 3 7 6 5 3 4 4 4 5 7
8 8 3 3 6 6 8 8 6 9 5 8 14 14 13 14 12 13 12 12 9 10 14 13 12 11 10 13 12 11 10 6 3 4 4 3 2 3 6 8 7 7 5 4 5 3 3 5 4
9 7 4 3 5 6 2 9 7 10 14 15 16 16 16 14 13 13 14 11 9 10 13 14 12 12 11 11 9 10 8 8 6 5 5 3 5 4 7 7 8 6 4 3 4 4 5 5 5
4 3 3 2 4 6 4 10 9 14 15 15 17 16 14 13 14 14 13 13 12 12 12 13 14 13 13 10 10 9 9 10 8 5 4 4 6 6 8 7 7 5 4 3 3 1 3 3 1
2 2 3 4 3 5 8 8 8 10 10 12 14 12 13 13 13 12 11 12 12 13 15 16 14 14 14 13 11 12 9 10 9 8 7 6 6 6 8 8 7 6 3 0 2 4 3 3 2
3 4 6 5 6 4 5 5 7 7 8 9 11 10 10 11 9 9 11 12 13 13 14 14 14 15 15 12 12 12 12 10 10 8 7 6 6 7 7 6 5 4 5 7 9 5 3 5 3
Wind_Direction
264 232 245 262 246 227 259 244 246 221 218 24 286 256 306 318 357 39 141 149 131 154 150 162 158 158 157 156 152 146 137 137 130 127 123 122 121 116 110 100 92 88 84 81 78 74 70 67 65
275 247 241 261 255 249 242 222 196 241 153 311 268 256 246 239 51 92 143 179 146 153 147 157 157 159 159 158 152 148 143 141 134 129 127 127 128 129 122 108 98 96 91 85 81 75 71 66 64
256 246 253 228 238 253 268 208 247 345 302 272 281 198 336 34 80 128 102 160 157 156 154 141 159 156 158 155 155 148 147 147 137 130 131 134 141 138 130 115 112 101 94 89 84 81 75 70 63
210 205 256 260 249 250 255 286 182 254 240 233 274 278 124 44 94 99 142 157 155 150 151 136 155 157 155 155 153 149 148 146 134 136 138 142 148 143 132 118 116 107 101 94 88 84 79 72 67
238 256 243 248 248 262 273 212 320 276 267 266 261 270 142 83 71 129 155 156 160 144 164 146 154 159 158 157 154 150 148 139 138 140 140 149 148 141 135 120 119 113 105 96 92 86 83 80 74
224 256 245 251 253 254 257 254 252 268 280 278 240 255 100 99 148 145 159 163 160 155 143 145 158 160 158 155 154 150 145 141 141 147 149 149 139 131 126 120 120 113 100 98 94 92 86 79 77
250 236 257 270 275 277 286 311 280 287 275 280 353 281 95 129 139 155 163 166 160 155 161 150 165 160 158 158 152 146 143 139 155 157 153 138 127 126 123 115 118 109 105 99 98 96 93 88 81
279 262 264 266 268 278 282 260 276 298 280 17 335 266 259 127 158 163 164 168 170 171 147 150 161 163 164 158 153 146 142 151 161 164 168 123 121 123 122 114 118 110 105 100 100 99 95 94 89
263 255 257 265 274 290 283 279 276 297 291 255 270 293 42 124 139 164 173 175 179 186 160 164 162 163 161 157 151 145 142 162 166 150 136 150 132 126 145 100 116 107 104 103 104 104 106 100 101
244 255 279 348 329 301 293 293 295 278 255 253 233 219 319 121 171 170 191 182 190 189 163 153 173 166 174 195 151 178 165 175 179 162 171 147 154 151 119 109 116 109 108 108 111 125 145 141 125
249 264 331 305 302 308 294 283 277 271 266 265 278 270 145 209 192 201 203 199 192 190 147 158 185 196 164 183 148 183 169 167 176 171 189 138 148 127 127 136 141 128 145 126 139 175 184 113 98
274 238 289 296 295 295 281 293 282 276 277 286 282 275 276 211 208 219 200 199 193 188 254 166 193 215 175 161 181 182 179 148 170 209 178 158 131 167 146 161 160 148 155 142 152 114 119 124 131
251 291 306 288 282 274 277 271 275 275 271 267 259 255 257 258 226 205 221 228 227 178 189 210 176 218 175 182 197 182 115 151 179 211 141 164 158 169 148 148 147 148 137 151 128 143 131 123 102
345 301 291 280 279 289 271 281 278 272 269 277 261 253 250 249 240 231 204 228 198 230 213 197 175 209 183 191 196 142 153 163 177 123 174 170 163 168 162 154 147 140 165 144 154 141 117 116 110
295 285 274 16 332 304 327 273 249 250 241 275 275 245 234 253 257 244 219 205 221 200 205 196 193 186 188 195 181 148 167 174 172 170 170 171 161 163 162 164 152 163 162 159 151 134 147 111 114
269 252 340 18 333 28 283 300 314 358 301 287 287 292 282 231 247 248 241 209 207 217 195 184 207 184 193 191 142 159 172 169 184 169 171 170 164 164 159 164 162 160 162 154 148 142 143 142 134
199 337 341 327 298 292 275 301 301 310 317 305 295 279 263 256 238 266 245 225 205 212 198 183 201 188 184 182 147 160 168 197 178 171 171 165 172 167 164 165 156 161 152 161 160 166 160 159 157
324 327 324 318 353 342 306 320 333 360 322 302 299 277 274 258 256 236 238 225 219 199 219 203 172 177 178 164 146 165 172 179 203 170 173 171 170 171 163 161 163 156 165 165 171 169 173 169 163
308 305 302 349 23 324 358 323 34 21 347 346 338 316 305 293 269 283 259 235 217 173 237 223 162 169 179 147 160 175 172 175 182 172 178 173 166 165 162 165 169 157 172 170 184 172 182 178 175
312 315 341 303 207 300 336 219 152 47 30 359 329 325 308 293 279 252 217 242 205 192 180 205 177 181 189 152 153 139 120 144 155 164 143 130 156 156 153 143 155 154 178 176 198 162 167 178 208
324 347 327 304 313 239 331 182 225 26 23 8 349 344 318 318 288 276 256 258 215 196 200 182 183 186 180 155 136 115 85 53 95 159 144 159 158 162 140 154 166 184 185 172 190 158 207 155 228
304 1 322 288 288 348 28 322 65 19 6 358 354 336 325 324 306 276 247 252 249 208 183 200 195 193 179 137 126 132 123 131 100 95 104 36 148 145 127 113 80 47 41 21 40 26 70 24 205
313 324 323 305 284 325 15 313 338 17 351 340 338 348 339 326 319 300 263 227 248 236 189 177 121 327 132 130 130 124 106 102 124 116 137 130 137 143 134 121 106 95 89 57 41 358 267 227 284
299 307 210 275 264 243 17 18 340 11 336 324 351 350 352 339 332 311 267 234 214 211 122 114 135 125 122 117 116 114 123 111 122 143 171 168 184 202 123 124 113 102 108 60 331 331 314 309 268
354 349 6 326 3 28 3 322 45 350 352 357 348 359 356 352 345 329 186 170 173 95 99 98 95 101 113 97 104 110 110 120 149 170 183 164 150 161 138 78 83 103 88 44 302 307 276 271 274
332 331 36 299 353 332 311 6 20 332 85 48 15 16 14 5 357 358 28 49 71 90 92 100 101 94 97 99 114 120 107 124 114 157 172 175 149 115 149 141 135 137 134 213 236 252 264 268 283
354 15 0 300 205 261 227 69 167 27 24 24 30 15 18 7 11 16 27 41 60 78 97 109 109 104 109 109 106 111 126 140 144 171 175 157 110 118 146 151 151 151 163 199 212 237 231 234 265
324 334 253 136 333 320 29 63 7 7 12 18 29 21 11 11 24 27 28 36 39 59 78 84 91 102 99 99 92 85 83 64 92 90 96 107 119 121 133 113 99 90 80 78 129 213 290 264 173
235 350 342 267 350 330 320 73 11 13 20 24 41 24 18 21 26 30 40 41 50 55 67 75 68 78 71 63 70 71 63 66 66 66 51 65 72 116 115 111 110 105 97 55 246 224 198 243 198
310 339 324 327 348 302 263 75 31 38 54 36 61 38 38 43 56 49 52 55 53 60 62 76 77 78 77 78 78 78 80 71 72 81 84 83 100 103 101 104 106 133 178 197 207 201 183 228 218